Location: Wien
(48.2082°N, 16.3738°E)
Time: 21:47:28
(UTC+02:00)

MOZHAYETS 4 - Pass Details

Date: 03 May 2024
Orbit: 652 x 670 km, 98.3° (Epoch: 20 May)

Event Time Altitude Azimuth Distance (km) Brightness Sun altitude
Rises 03:44:58 0° 154° (SSE) 3,007 10.9 -15.3°
Reaches altitude 10° 03:47:13 10° 151° (SSE) 2,097 10.1 -15.0°
Maximum altitude 03:51:44 62° 72° (ENE) 758 8.2 -14.5°
Drops below altitude 10° 03:56:16 10° 352° (N) 2,107 10.8 -13.9°
Sets 03:58:31 0° 349° (N) 3,022 11.6 -13.7°
